FW7249 Weather Reports


time (UTC)temp
C
wind
direction
speed
KPH
gust
KPH
rain 1hr
cm
rain 24hr
cm
rain mn
cm
humidity
%
barometer
mb
20260504191538 25 62 0.0 0.0 0.00 0.00 0.00 25 1013.9
20260504190036 25 81 0.0 1.6 0.00 0.00 0.00 25 1014.2
20260504184535 25 345 0.0 1.6 0.00 0.00 0.00 26 1014.4
20260504183032 25 90 0.0 0.0 0.00 0.00 0.00 29 1014.6
20260504181525 25 347 0.0 0.0 0.00 0.00 0.00 29 1014.7
20260504180022 24 311 0.0 0.0 0.00 0.00 0.00 31 1015.0
20260504174519 23 105 0.0 0.0 0.00 0.00 0.00 31 1015.1
20260504173017 23 324 0.0 0.0 0.00 0.00 0.00 33 1015.3
20260504171513 22 138 0.0 0.0 0.00 0.00 0.00 33 1015.6
20260504081501 8 20 0.0 0.0 0.00 0.00 0.00 72 1016.6
20260504044533 11 44 0.0 0.0 0.00 0.00 0.00 61 1017.2
20260504043039 11 44 0.0 0.0 0.00 0.00 0.00 63 1017.3
20260504041531 11 44 0.0 0.0 0.00 0.00 0.00 60 1017.4
20260504040028 10 44 0.0 0.0 0.00 0.00 0.00 64 1017.3
20260504034528 10 44 0.0 0.0 0.00 0.00 0.00 65 1017.4
20260504033027 11 44 0.0 0.0 0.00 0.00 0.00 63 1017.3
20260504031529 11 44 0.0 0.0 0.00 0.00 0.00 65 1017.4
20260504030027 11 44 0.0 0.0 0.00 0.00 0.00 63 1017.3
20260504024525 11 44 0.0 0.0 0.00 0.00 0.00 62 1017.3
20260504023025 11 44 0.0 0.0 0.00 0.00 0.00 59 1017.1
20260504021524 11 44 0.0 0.0 0.00 0.00 0.00 56 1016.8
20260504020027 11 44 0.0 0.0 0.00 0.00 0.00 57 1016.7
20260504014533 12 44 0.0 0.0 0.00 0.00 0.00 56 1016.6
20260504013034 12 44 0.0 0.0 0.00 0.00 0.00 56 1016.5
20260504011522 12 44 0.0 0.0 0.00 0.00 0.00 53 1016.2
20260504010021 13 44 0.0 0.0 0.00 0.00 0.00 52 1016.1
20260504004522 14 44 0.0 0.0 0.00 0.00 0.00 46 1016.0
20260504003019 15 44 0.0 0.0 0.00 0.00 0.00 44 1015.8
20260504001521 16 44 0.0 0.0 0.00 0.00 0.00 42 1015.7
20260504000020 16 44 0.0 0.0 0.00 0.00 0.00 37 1015.7
20260503234521 17 34 0.0 0.0 0.00 0.00 0.00 35 1015.6
20260503233021 17 34 0.0 0.0 0.00 0.00 0.00 36 1015.6
20260503231519 18 40 0.0 0.0 0.00 0.00 0.00 31 1015.6
20260503230016 18 13 0.0 0.0 0.00 0.00 0.00 30 1015.7
20260503224515 19 33 0.0 0.0 0.00 0.00 0.00 29 1015.7
20260503223015 21 338 0.0 0.0 0.00 0.00 0.00 27 1015.8
20260503221513 23 277 0.0 0.0 0.00 0.00 0.00 25 1015.8
20260503220012 22 313 0.0 3.2 0.00 0.00 0.00 23 1015.8
20260503214512 22 91 0.0 0.0 0.00 0.00 0.00 22 1015.8
20260503213010 22 296 0.0 3.2 0.00 0.00 0.00 24 1016.0
20260503211509 22 87 0.0 6.4 0.00 0.00 0.00 23 1016.0
20260503210007 22 276 0.0 1.6 0.00 0.00 0.00 24 1016.1
20260503204504 22 72 0.0 0.0 0.00 0.00 0.00 25 1016.3
20260503203008 22 100 0.0 0.0 0.00 0.00 0.00 26 1016.6
20260503201502 21 349 0.0 1.6 0.00 0.00 0.00 25 1016.8
20260503200001 21 338 0.0 6.4 0.00 0.00 0.00 25 1017.0
20260503194559 20 291 0.0 3.2 0.00 0.00 0.00 28 1017.2
20260503193058 20 325 0.0 1.6 0.00 0.00 0.00 28 1017.4